This is the latest recevied weather packets stored in our database for station/object F4AMY-13. If no packets are shown the sender has not sent any weather packets the latest 10 day(s).
| Time | Temp. | Humidity | Pressure | Rain* | Wind** | Luminosity | Snow |
|---|---|---|---|---|---|---|---|
| 1777870921 | 11.67° C | 91% | 1013.8 hPa | 0 mm | 0 m/s | 0 W/m² | - |
| 1777870621 | 11.67° C | 91% | 1013.5 hPa | 0 mm | 0 m/s | 0 W/m² | - |
| 1777870321 | 11.67° C | 91% | 1013.7 hPa | 0 mm | 0 m/s | 0 W/m² | - |
| 1777870021 | 11.67° C | 90% | 1013.7 hPa | 0 mm | 0 m/s | 0 W/m² | - |
| 1777869721 | 11.67° C | 90% | 1013.9 hPa | 0 mm | 0 m/s | 0 W/m² | - |
| 1777869421 | 12.22° C | 89% | 1013.7 hPa | 0 mm | 0 m/s | 0 W/m² | - |
| 1777869121 | 12.22° C | 89% | 1013.6 hPa | 0 mm | 0 m/s | 0 W/m² | - |
| 1777868821 | 12.78° C | 88% | 1013.7 hPa | 0 mm | 0 m/s | 0 W/m² | - |
| 1777868521 | 13.33° C | 87% | 1013.7 hPa | 91.44 mm | 0 m/s | 0 W/m² | - |
| 1777868221 | 13.33° C | 86% | 1013.9 hPa | 137.16 mm | 0 m/s | 0 W/m² | - |
| 1777867921 | 13.89° C | 84% | 1013.7 hPa | 91.44 mm | 0 m/s | 0 W/m² | - |
| 1777867621 | 14.44° C | 82% | 1013.7 hPa | 91.44 mm | 0 m/s | 0 W/m² | - |
| 1777867321 | 14.44° C | 78% | 1013.9 hPa | 45.72 mm | 0 m/s | 0 W/m² | - |
| 1777867021 | 14.44° C | 75% | 1013.7 hPa | 0 mm | 0 m/s | 0 W/m² | - |
| 1777866721 | 15° C | 71% | 1013.8 hPa | 0 mm | 0 m/s | 0 W/m² | - |
| 1777866421 | 15° C | 68% | 1013.7 hPa | 0 mm | 0 m/s | 0 W/m² | - |
| 1777866121 | 15° C | 69% | 1013.9 hPa | 0 mm | 0 m/s | 0 W/m² | - |
| 1777865820 | 15° C | 64% | 1013.9 hPa | 0 mm | 0 m/s | 0 W/m² | - |
| 1777865520 | 15° C | 60% | 1013.8 hPa | 0 mm | 0 m/s | 0 W/m² | - |
| 1777865220 | 15° C | 59% | 1013.6 hPa | 0 mm | 0 m/s | 0 W/m² | - |
| 1777864920 | 15° C | 59% | 1013.3 hPa | 0 mm | 0 m/s | 0 W/m² | - |
| 1777864620 | 15° C | 59% | 1013.5 hPa | 0 mm | 0 m/s | 0 W/m² | - |
| 1777864320 | 15° C | 57% | 1013.4 hPa | 0 mm | 0 m/s | 0 W/m² | - |
| 1777864020 | 15° C | 56% | 1013.3 hPa | 0 mm | 0 m/s | 0 W/m² | - |
| 1777863720 | 15° C | 56% | 1013.3 hPa | 0 mm | 0 m/s | 0 W/m² | - |
* Rain latest hour (hover to see other rain measurements)
** Current wind speed in m/s (hover to see current wind gust speed)